Regional Weather Roundup
Issued by NWS

Home | Current Version | Previous Version | Graphics & Text | Print | Product List | Glossary On
Versions: 1 2 3 4 5 6 7 8 9 10 11 12 13 14 15 16 17 18 19 20 21 22 23 24 25 26 27 28 29 30 31 32 33 34 35 36 37 38 39 40 41 42 43 44 45 46 47 48 49 50
000
ASUS43 KIND 280309
RWRIN

WEATHER ROUNDUP FOR INDIANA
NATIONAL WEATHER SERVICE INDIANAPOLIS IN
1100 PM EDT WED JUL 27 2016

NOTE: "FAIR" INDICATES FEW OR NO CLOUDS BELOW 12,000 FEET WITH NO
SIGNIFICANT WEATHER AND/OR OBSTRUCTIONS TO VISIBILITY.

* - STATION DOES NOT REPORT WEATHER SUCH AS PRECIPITATION OR FOG.

+ - STATION NOT QUALITY CONTROLLED BY THE NATIONAL WEATHER SERVICE.
    USE DATA WITH CAUTION...ESPECIALLY DEWPOINT AND RELATIVE
    HUMIDITY OBSERVATIONS.

INZ001>003-010>013-019-020-280400-
NORTHWEST INDIANA

CITY           SKY/WX    TMP DP  RH WIND       PRES   REMARKS
GARY /AIRPORT/ PTCLDY    75  72  88 CALM      29.95R
KNOX *+        CLEAR     70  64  83 CALM      29.96R
LA PORTE +     MOCLDY    74  72  93 CALM      29.97R
MICHIGAN CITY+ MOCLDY    70  68  94 SE3       29.97R
MONTICELLO +   CLEAR     72  67  84 CALM      29.96R
RENSSELAER +   CLEAR     70  70 100 CALM      29.97R
VALPARAISO     CLEAR     75  67  76 S3        29.97R

$$

LMZ046-743>745-280400-
SOUTHERN LAKE MICHIGAN

STATION/POSITION TIME  TEMP    WIND        PRES    WAVE
                       AIR SEA DIR/SP/G            HT
                 (UTC) (F)     (DEG/KT/KT) (MB)    (FT)
BURNS HARBOR     0200   81     170/  2/ 11 1014.2R
MICHIGAN CITY    0200   79      20/  5/  7   N/A
5NW MICH CITY    0300   78 78  150/  4/  4   N/A     0

$$

INZ004-005-014>016-021>024-280400-
NORTH CENTRAL INDIANA

CITY           SKY/WX    TMP DP  RH WIND       PRES   REMARKS
GOSHEN         CLEAR     74  65  73 NE3       29.97R
LOGANSPORT +   CLEAR     72  66  83 CALM      29.97R
PERU/GRISSOM   CLOUDY    75  67  76 W1        29.96R
ROCHESTER +    MOCLDY    75  72  88 CALM      29.98R
SOUTH BEND     CLEAR     73  67  81 CALM      29.97R
WARSAW +       CLEAR     75  68  78 N3        29.97R

$$

INZ006>009-017-018-025>027-280400-
NORTHEAST INDIANA

CITY           SKY/WX    TMP DP  RH WIND       PRES   REMARKS
ANGOLA *+        N/A     73  64  73 N5        29.97R
AUBURN +       PTCLDY    73  61  64 CALM      29.97R
FORT WAYNE     PTCLDY    72  65  78 CALM      29.97R
HUNTINGTON +   PTCLDY    73  67  82 CALM      29.97R

$$

INZ028-029-035-036-043>045-051>053-280400-
WEST CENTRAL INDIANA

CITY           SKY/WX    TMP DP  RH WIND       PRES   REMARKS
CRAWFORDSVL +  MOCLDY    71  71 100 CALM      29.96S
GREENCASTLE +  CLOUDY    75  73  94 CALM      29.97S
LAFAYETTE      PTCLDY    72  69  90 CALM      29.96R
TERRE HAUTE    CLOUDY    77  72  84 CALM      29.95R

$$

INZ030>032-037>040-046>048-054>057-064-065-280400-
CENTRAL INDIANA

CITY           SKY/WX    TMP DP  RH WIND       PRES   REMARKS
INDIANAPOLIS   CLOUDY    81  65  58 N7        29.96R
-EAGLE CREEK   CLOUDY    80  66  62 N3        29.96R
KOKOMO *+      MOCLDY    72  64  78 CALM      29.97R
MARION +       PTCLDY    70  67  89 CALM      29.99R FOG
MT COMFORT *+  CLOUDY    75  70  83 CALM      29.97S
SHELBYVILLE    MOCLDY    79  72  79 CALM      29.95R
ZIONSVILLE +   PTCLDY    68  67  96 NW3       29.98S

$$

INZ033-034-041-042-049-050-058-059-280400-
EAST CENTRAL INDIANA

CITY           SKY/WX    TMP DP  RH WIND       PRES   REMARKS
MUNCIE         PTCLDY    73  66  78 CALM      29.98R

$$

INZ060-061-067>069-081>083-085>088-280400-
SOUTHWEST INDIANA

CITY           SKY/WX    TMP DP  RH WIND       PRES   REMARKS
EVANSVILLE     CLOUDY    76  74  93 SW3       29.95R
HUNTINGBURG *+ CLOUDY    75  72  88 CALM      29.95R
WASHINGTON +   CLOUDY    77  77 100 MISG      29.94R

$$

INZ062-063-066-070>080-084-089>092-280400-
SOUTH CENTRAL AND SOUTHEAST INDIANA

CITY           SKY/WX    TMP DP  RH WIND       PRES   REMARKS
BLOOMINGTON    MOCLDY    75  70  84 CALM      29.96R
MADISON *+     CLOUDY    77  72  83 CALM      29.98S
NORTH VERNON + CLOUDY   N/A N/A N/A CALM      29.96S
SEYMOUR +      CLOUDY    77  75  94 CALM      29.94F

$$





USA.gov is the U.S. government's official web portal to all federal, state and local government web resources and services.